Terminal Aerodrome Forecast
Issued by NWS

Current Version | Previous Version | Text Only | Print | Product List | Glossary Off
Versions: 1 2 3 4 5 6 7 8 9 10 11 12 13 14 15 16 17 18

000
FTUS41 KPBZ 141747
TAFHLG
TAF
KHLG 141747Z 1418/1518 00000KT P6SM SCT070
     FM150900 00000KT 2SM BR SCT070
     FM151400 27003KT P6SM BKN100=

USA.gov is the U.S. government's official web portal to all federal, state and local government web resources and services.